Munising, MI

9:17 AM EDT on June 27, 2017 (GMT -0400)
Munising

Weather History for KP53 - March, 2014

Change the Weather History Date:

Sunday, March 23, 2014

  Actual Average (KISQ) Record (KISQ)
Temperature  
Mean Temperature 10 °F -  
Max Temperature 18 °F 37 °F 53 °F (2012)
Min Temperature 1 °F 21 °F -3 °F (1965)
Degree Days  
Heating Degree Days 56    
Moisture  
Dew Point 1 °F    
Average Humidity 64    
Maximum Humidity 76    
Minimum Humidity 48    
Precipitation  
Precipitation 0.00 in - - ()
Sea Level Pressure  
Sea Level Pressure 30.39 in    
Wind  
Wind Speed 7 mph (NW)    
Max Wind Speed 14 mph    
Max Gust Speed 21 mph    
Averages and records for this station are not official NWS values.
T = Trace of Precipitation, MM = Missing Value Source: NWS Daily Summary

Daily Weather History Graph

Daily Weather History Graph

Search for Another Location

Airport or City:

Trip Planner

Search our weather history database for the weather conditions in past years. The results will help you decide how hot, cold, wet, or windy it might be!

Date:

Astronomy

Mar. 23, 2014 Rise Set
Actual Time 7:43 AM EDT 8:03 PM EDT
Civil Twilight 7:13 AM EDT 8:33 PM EDT
Nautical Twilight 6:38 AM EDT 9:09 PM EDT
Astronomical Twilight 6:01 AM EDT 9:45 PM EDT
Moon 2:36 AM EDT (3/23) 12:07 PM EDT (3/23)
Length of Visible Light 13h 19m
Length of Day
12h 19m
Waning Gibbous, 55% of the Moon is Illuminated
Mar 23
Waning Gibbous
Mar 23
Last Quarter
Mar 30
New
Apr 7
First Quarter
Apr 15
Full

Hourly Weather History & Observations

Time (EDT) Temp. Windchill Dew Point Humidity Pressure Visibility Wind Dir Wind Speed Gust Speed Precip Events Conditions
12:56 AM 12.0 °F 4.1 °F 3.0 °F 67% 30.37 in - NW 4.6 mph - N/A   Unknown
1:56 AM 10.9 °F 1.4 °F 1.9 °F 67% 30.37 in - NW 5.8 mph - N/A   Unknown
2:56 AM 10.0 °F -2.9 °F 1.9 °F 70% 30.37 in - NW 9.2 mph - N/A   Unknown
3:56 AM 7.0 °F -3.3 °F -0.0 °F 73% 30.37 in - NW 5.8 mph - N/A   Unknown
4:56 AM 6.1 °F - -0.9 °F 73% 30.39 in - Calm Calm - N/A   Unknown
5:56 AM 3.9 °F - -2.0 °F 76% 30.39 in - Calm Calm - N/A   Unknown
6:56 AM 9.0 °F -3.2 °F 1.0 °F 70% 30.39 in - WNW 8.1 mph - N/A   Unknown
7:56 AM 1.9 °F - -5.1 °F 72% 30.40 in - Calm Calm - N/A   Unknown
8:56 AM 10.9 °F 1.4 °F 1.9 °F 67% 30.41 in - WNW 5.8 mph - N/A   Unknown
9:56 AM 14.0 °F 5.1 °F 1.9 °F 59% 30.41 in - NNW 5.8 mph - N/A   Unknown
10:56 AM 14.0 °F -0.8 °F 3.0 °F 62% 30.41 in - NNW 13.8 mph - N/A   Unknown
11:56 AM 15.1 °F 1.1 °F 3.9 °F 61% 30.42 in - NNW 12.7 mph - N/A   Unknown
12:56 PM 16.0 °F 2.3 °F 3.0 °F 57% 30.42 in - NNW 12.7 mph - N/A   Unknown
1:56 PM 17.1 °F 3.0 °F 1.9 °F 52% 30.40 in - NNW 13.8 mph - N/A   Unknown
2:56 PM 17.1 °F 3.0 °F 1.0 °F 50% 30.40 in - NNW 13.8 mph 20.7 mph N/A   Unknown
3:56 PM 18.0 °F 4.8 °F 1.0 °F 48% 30.39 in - NW 12.7 mph - N/A   Unknown
4:56 PM 17.1 °F 4.3 °F 1.9 °F 52% 30.38 in - NNW 11.5 mph - N/A   Unknown
5:56 PM 17.1 °F 4.3 °F 3.0 °F 54% 30.38 in - NNW 11.5 mph - N/A   Unknown
6:56 PM 16.0 °F 4.4 °F 1.9 °F 54% 30.38 in - NNW 9.2 mph - N/A   Unknown
7:56 PM 10.9 °F 1.4 °F 1.9 °F 67% 30.38 in - NNW 5.8 mph - N/A   Unknown
8:56 PM 10.9 °F - 3.0 °F 70% 30.38 in - Calm Calm - N/A   Unknown
9:56 PM 7.0 °F -3.3 °F -0.0 °F 73% 30.37 in - South 5.8 mph - N/A   Unknown
10:56 PM 5.0 °F -6.9 °F -2.0 °F 73% 30.37 in - South 6.9 mph - N/A   Unknown
11:56 PM 3.0 °F -10.5 °F -2.9 °F 76% 30.36 in - South 8.1 mph - N/A   Unknown